Regional Weather Roundup
Issued by NWS Grand Forks, ND

Home | Current Version | Previous Version | Text Only | Print | Product List | Glossary Off
Versions: 1 2 3 4 5 6 7 8 9 10 11 12 13 14 15 16 17 18 19 20 21 22 23 24 25 26 27 28 29 30 31 32 33 34 35 36 37 38 39 40 41 42 43 44 45 46 47 48 49 50

000
ASUS43 KFGF 240431
RWRFGF
PRAIRIE TO PINES  WEATHER ROUNDUP
NATIONAL WEATHER SERVICE EASTERN NORTH DAKOTA/GRAND FORKS ND
1100 PM CDT SAT JUL 23 2016

 **SATELLITE DATA USED TO AUGMENT SKY COVER AT AUTOMATED STATIONS**
 *****  WEATHER ACROSS EASTERN NORTH DAKOTA  *****

CITY           SKY/WX    TMP DP  RH WIND       PRES   REMARKS
GRAND FORKS    CLEAR     67  65  93 S5        29.72R
GRAND FRKS AFB CLEAR     68  67  99 W7        29.73R
GRAND FRKS NWS   N/A     66 N/A N/A W3          N/A
DEVILS LAKE    CLEAR     70  59  68 W14       29.79R
FARGO          CLOUDY    76  71  85 NW3       29.76R
WAHPETON ARPT  CLOUDY    72  68  88 W5        29.79R
$$

 ***** WEATHER ACROSS CENTRAL AND WESTERN NORTH DAKOTA  *****

CITY           SKY/WX    TMP DP  RH WIND       PRES   REMARKS
BISMARCK       CLEAR     73  56  54 NW9       29.89R
MINOT          CLEAR     71  57  61 W16       29.85R
JAMESTOWN      CLEAR     68  61  78 W8        29.80R
MINOT AFB      CLEAR     67  59  76 W15       29.84R
GARRISON         N/A     63  58  83 NW9       29.88R
WILLISTON      PTCLDY    65  56  72 NW10      29.95R
DICKINSON      CLEAR     61  52  72 W7        29.97R
HETTINGER      CLEAR     67  46  47 NW10      29.99R
$$

 *****  OTHER AIRPORT OBSERVATIONS IN OUR AREA  *****

CITY           SKY/WX    TMP DP  RH WIND       PRES   REMARKS
WALHALLA       FAIR      70  66  88 W8        29.71R
GRAFTON AIRPOR FAIR      68  68 100 SW8       29.73R
VALLEY CITY AR   N/A     68  66  94 W6        29.81R
CANDO          FAIR      63  63 100 W9        29.80R
CAVALIER APRT  FAIR      68  68 100 W8        29.71R
GWINNER        FAIR      70  66  88 W7        29.82R
SHEYENNE NWR     N/A     74  69  83 NW5       29.95S
ROLLA            N/A     66  57  72 NW17G23   29.78S
 ***** THE ABOVE OBSERVATIONS ARE NON NWS ARE NOT QUALITY
       CONTROLLED AND MAY MIS-REPORT RAIN FOR SNOW...
$$

  *****  WEATHER ACROSS NORTHERN MINNESOTA  *****

CITY           SKY/WX    TMP DP  RH WIND       PRES   REMARKS
FLAG ISLAND    CLOUDY    68  66  94 W3        29.67S VSB 1
WARROAD        RAIN      72  66  83 SW6       29.69S
ROSEAU         PTCLDY    72  64  78 SW6       29.70S
HALLOCK        CLEAR     66  66 100 S5        29.70R
THF RVR FALLS  CLOUDY    70  69  97 SW6       29.75R
BAUDETTE       CLOUDY    74  68  81 S9        29.70F
WASKISH        CLOUDY    72  66  83 S7        29.73F
CROOKSTON      PTCLDY    70  70 100 SW5       29.74S
STEPHEN NDAWN    N/A     70  68  94 SW5         N/A
GREENBUSH NDAW   N/A     68  66  94 SW5         N/A
$$
  *****  WEATHER ACROSS CENTRAL AND WEST MINNESOTA  *****

CITY           SKY/WX    TMP DP  RH WIND       PRES   REMARKS
FOSSTON        MOCLDY    72  70  94 SW6       29.77R
BEMIDJI        CLOUDY    72  68  88 S8        29.76R
PARK RAPIDS    LGT RAIN  74  69  85 SE5       29.77R
ELBOW LAKE     FAIR      70  69  96 NW9       29.76F
WADENA         LGT RAIN  72  70  94 W5        29.77R
DETROIT LAKES  CLOUDY    68  64  88 CALM      29.81R
MOORHEAD       CLOUDY    75  72  88 W5        29.78R
FERGUS FALLS   CLOUDY    70  70 100 W5        29.80R
MORRIS MN      TSTM      73  72  94 N20G28    29.79R
STAPLES        CLOUDY    73  70  88 SE6       29.74F
$$
  *****  WEATHER ELSEWHERE ACROSS MINNESOTA  *****

CITY           SKY/WX    TMP DP  RH WIND       PRES   REMARKS
DULUTH         CLOUDY    62  59  90 SE9       29.82S
INTRNTL FALLS  CLOUDY    72  65  78 S6        29.74S
ELY            CLEAR     64  57  77 SE6       29.82S
CLOQUET        CLOUDY    63  57  82 E5        29.82S
WHEATON        CLOUDY    72  72 100 NW6       29.80R
BRAINERD       CLOUDY    72  69  90 SE5       29.78R
HIBBING        CLOUDY    66  64  93 SE5       29.81R
ALEXANDRIA     CLOUDY    75  73  93 SW9       29.78R
SAINT CLOUD    MOCLDY    72  72 100 E5        29.77S
MINNEAPOLIS    CLOUDY    75  71  87 SE3       29.79R
$$

  *****  WEATHER ACROSS SOUTH DAKOTA  *****

CITY           SKY/WX    TMP DP  RH WIND       PRES   REMARKS
SIOUX FALLS    PTCLDY    84  76  76 SW6       29.78R HX  93
BROOKINGS      CLEAR     79  74  84 NW10      29.81R
WATERTOWN      PTCLDY    79  70  74 NW16      29.83R
HURON          CLEAR     72  68  87 NW7       29.84R
SISSETON         N/A     76  69  79 N10       29.79R
ABERDEEN       CLEAR     72  66  81 NW5       29.83R
MITCHELL       CLEAR     79  70  74 N13       29.84R
PIERRE         CLEAR     69  56  62 N6        29.89R
MOBRIDGE       CLEAR     68  56  65 NW5       29.87R
RAPID CITY     CLEAR     69  41  36 N13       30.02R
$$

  *****  SOME WEATHER IN NEARBY STATES *****

CITY           SKY/WX    TMP DP  RH WIND       PRES   REMARKS
GLASGOW MT     PTCLDY    65  51  60 CALM      29.99R
GREAT FALLS MT CLOUDY    68  39  34 NW7       30.06R
CHEYENNE WY    CLOUDY    74  45  35 SW13      30.18R
SCOTTSBLUFF NE PTCLDY    71  58  63 NE9       30.02R
OMAHA NE       CLOUDY    85  76  74 S8        29.80R HX  94
DES MOINES IA  PTCLDY    82  77  84 S8        29.82S HX  90
DAVENPORT IA   CLOUDY    75  72  90 SE9       29.91F
CHICAGO IL     TSTM      71  69  93 E10       29.99F
EAU CLAIRE WI  MOCLDY    70  69  97 E3        29.82F
LA CROSSE WI   MOCLDY    74  69  85 S8        29.82S
$$

  *****  SOME NATIONAL WEATHER *****

CITY           SKY/WX    TMP DP  RH WIND       PRES   REMARKS
LA GUARDIA NY  PTCLDY    86  57  37 N8        29.88R
RALEIGH NC     PTCLDY    80  72  76 SW8       29.99S
ATLANTA GA     MOCLDY    81  72  74 SE3       30.05R
NEW ORLEANS LA CLOUDY    84  76  76 CALM      29.98R HX  93
OKLAHOMA CITY  CLEAR     83  67  58 S7        29.93R
ALBUQUERQUE NM MOCLDY    87  45  23 SE16G24   30.10R THUNDER
SALT LAKE CITY PTCLDY    82  28  14 S5        30.02R
LOS ANGELES CA MOCLDY    73  64  73 E9        29.82R
BOISE ID       CLEAR     78  32  18 W3        30.04R
SEATTLE WA     PTCLDY    66  55  67 N10       30.21S
$$

*** WEATHER ACROSS MANITOBA...SASKATCHEWAN AND ONTARIO ***
                ***ONTARIO***

CITY           SKY/WX    TMP DP  RH WIND       PRES   REMARKS
GERALDTON      CLOUDY    68  57  68 SE5       29.92S
THUNDER BAY    MOCLDY    66  61  82 E12       29.85F
SIOUX LOOKOUT  MOCLDY    70  61  73 S14       29.75F
TORONTO        MOCLDY    75  57  53 N7        29.98S
BIG TROUT LK   RAIN      63  59  88 S9        29.79R
PICKLE LAKE    NOT AVBL
DRYDEN         CLOUDY    72  61  68 S15       29.74F
KENORA         TSTM      70  66  88 S6        29.70F
$$
                *** MANITOBA***

CITY           SKY/WX    TMP DP  RH WIND       PRES   REMARKS
BRANDON        PTCLDY    63  59  88 W9        29.73R
DAUPHIN        MOCLDY    61  59  94 SW7       29.70R
ISLAND LAKE    LGT RAIN  64  59  82 SE8       29.70F
PILOT MOUND      N/A     64  57  77 W6          N/A
THE PAS        PTCLDY    63  61  94 NW9       29.67R
THOMPSON       LGT RAIN  63  61  94 VRB2      29.71F
WINNIPEG       PTCLDY    70  68  94 SW13      29.64F
LYNN LAKE      CLOUDY    63  59  88 MISG      29.72R
CHURCHILL      LGT RAIN  57  55  94 N7        29.72S
GILLAM         CLOUDY    61  59  94 S3        29.73F
$$
                ***SASKATCHEWAN***

CITY           SKY/WX    TMP DP  RH WIND       PRES   REMARKS
ESTEVAN        PTCLDY    63  59  88 W9        29.89R
KINDERSLEY     PTCLDY    61  57  88 W5        29.95R
LLOYDMINSTER   PTCLDY    55  52  88 W8        29.92R
PRINCE ALBERT  MOCLDY    63  57  82 NW6       29.80R
REGINA         PTCLDY    59  55  88 W9        29.90R
YORKTON        CLEAR     59  57  94 SW10      29.78R
N. BATTLEFORD  CLEAR     63  52  67 W7        29.92R
LA RONGE       MOCLDY    61  61 100 W3        29.77S
SASKATOON      PTCLDY    61  52  72 W9        29.89R
SWIFT CURRENT  CLEAR     55  54  94 SW7       29.98R
$$
NOTE: THESE ARE AUTOMATED STATIONS WITH LIMITED QUALITY CONTROL
      "FAIR" INDICATES FEW OR NO CLOUDS BELOW 12,000 FEET WITH NO
      SIGNIFICANT WEATHER AND/OR OBSTRUCTIONS TO VISIBILITY.
      SKY/WX - SKY CONDITION AND SIGNIFICANT WEATHER.
      TMP - AIR TEMPERATURE.    DP   - DEWPOINT TEMPERATURE.
      RH  - RELATIVE HUMIDITY.  PRES - PRESSURE.
      HX  - HEAT INDEX.         WCI  - WIND CHILL INDEX.
$




USA.gov is the U.S. government's official web portal to all federal, state and local government web resources and services.